Regional Weather Roundup
Issued by NWS Charleston, SC

Current Version | Previous Version | Graphics & Text | Print | Product List | Glossary On
Versions: 1 2 3 4 5 6 7 8 9 10 11 12 13 14 15 16 17 18 19 20 21 22 23 24 25 26 27 28 29 30 31 32 33 34 35 36 37 38 39 40 41 42 43 44 45 46 47 48 49 50
000 ASUS42 KCHS 291010 RWRCHS REGIONAL WEATHER ROUNDUP NATIONAL WEATHER SERVICE CHARLESTON SC 500 AM EST MON DEC 29 2014 NOTE: "FAIR" INDICATES FEW OR NO CLOUDS BELOW 12,000 FEET WITH NO SIGNIFICANT WEATHER AND/OR OBSTRUCTIONS TO VISIBILITY. NOT ALL STATIONS ARE QUALITY CONTROLLED BY THE NATIONAL WEATHER SERVICE. USE DATA WITH CAUTION...ESPECIALLY DEWPOINT OBSERVATIONS. SCZ027-030-031-034>040-042>050-291100- ...SOUTHEAST SOUTH CAROLINA... CITY SKY/WX TMP DP RH WIND PRES REMARKS N CHARLESTON MOCLDY 60 59 96 S5 30.03R FOG WATERFRONT PRK N/A 61 N/A N/A SW5 N/A MOUNT PLEASANT FAIR 63 63 100 SW5 30.04R PINOPOLIS N/A 64 63 94 SW5 29.96R MONCKS CORNER PTSUNNY 59 57 94 CALM 30.03R FOG SUMMERVILLE FAIR 59 59 100 S3 30.03F FOG BEAUFORT MCAS CLOUDY 62 60 93 SW6 30.03S BEAUFORT ARPT CLOUDY 63 63 100 SW6 30.04R HILTON HEAD IS NOT AVBL WALTERBORO MOSUNNY 61 N/A N/A SW5 30.03F HAZE ALLENDALE FAIR 63 63 100 S3 30.00S ...SOUTHERN MIDLANDS AND PEE DEE... CITY SKY/WX TMP DP RH WIND PRES REMARKS GEORGETOWN NOT AVBL KINGSTREE NOT AVBL ORANGEBURG PTCLDY 60 58 92 S5 30.00F FOG BARNWELL N/A 61 61 100 S5 29.99F AIKEN CLOUDY 59 59 100 CALM 30.02F FOG MANNING CLOUDY 61 N/A N/A S3 30.01F COLUMBIA LGT RAIN 60 58 92 NW6 30.00R FOG SUMTER CLOUDY 59 59 100 CALM 29.99S FLORENCE CLOUDY 60 58 92 CALM 30.01S MYRTLE BEACH CLOUDY 61 57 88 CALM 30.03S VSB 1/4 N MYRTLE BEACH FOG 58 58 100 CALM 30.02S VSB 1/4 $$ GAZ063-065-086>088-099>101-113>116-118-119-134>141-150-291100- ...SOUTHEAST GEORGIA... CITY SKY/WX TMP DP RH WIND PRES REMARKS SAVANNAH ARPT CLOUDY 63 61 93 SW8 30.04F HUNTER AAF MOCLDY 63 63 99 W7 30.02S FORT STEWART CLOUDY 63 61 95 SW5 30.03F FOG STATESBORO CLEAR 62 62 100 S5 30.02F SYLVANIA SUNNY 62 62 100 CALM 30.02F CLAXTON FAIR 63 63 100 CALM 30.02F ...CSRA...CENTRAL AND FAR SOUTHEAST GEORGIA... CITY SKY/WX TMP DP RH WIND PRES REMARKS THOMSON CLOUDY 60 60 100 NW8 30.06R VSB 3/4 AUGUSTA-BUSH CLOUDY 59 58 96 SW3 29.99S AUGUSTA-DANIEL CLOUDY 61 59 93 N3 29.99F SWAINSBORO CLOUDY N/A N/A N/A SW6 30.01F VIDALIA CLOUDY 63 63 100 S5 30.02F EASTMAN CLOUDY 65 65 100 SW3 30.04F HAZLEHURST CLOUDY 66 66 100 S3 30.01F ALMA CLOUDY 64 63 96 S6 30.03F WAYCROSS CLOUDY 67 67 99 SW3 30.04F JESUP CLOUDY 66 64 94 CALM 30.05F FOG BAXLEY CLOUDY 66 64 94 SW6 30.02F BRUNSWICK CLOUDY 64 63 94 SW9G16 30.07R SAINT SIMONS CLOUDY 64 63 96 SW10 30.06R FOG $$ SCZ027-028-034-036>038-045-046-048>050-GAZ119-141-291100- ...LAKE AND SUPPLEMENTAL COASTAL OBSERVATIONS... STATION/POSITION TIME TEMP WIND PRES WAVE SWELL AIR SEA DIR/SP/G HT/PER HT/PER/DIR (UTC) (F) (DEG/KT/KT) (MB) (FT/S) (FT/S/D) UPR LAKE MARION NOT AVBL WINYAH BAY 0900 58 220/ 1 1016.0S LAKE MURRAY 0900 58 CALM / 2 1015.6F ACE BASIN NERRS 0900 56 CALM 1017.0S FORT PULASKI 1000 63 57 230/ 6/ 9 1017.7S SAPELO ISLAND 0900 61 230/ 6 1017.0S $$ ANZ835-935-AMZ111-154-330-350-352-354-370-450-454-472-291100- ...C-MAN AND BUOY OBSERVATIONS... STATION/POSITION TIME TEMP WIND PRES WAVE SWELL AIR SEA DIR/SP/G HT/PER HT/PER/DIR (UTC) (F) (DEG/KT/KT) (MB) (FT/S) (FT/S/D) BUOY 41004 1000 72 72 220/ 14/ 16 1016.1F 3/12 2/12 BUOY 41008 1000 61 59 240/ 10/ 12 1017.2R 2/14 2/210/14 FOLLY BEACH CMAN 0900 60 240/ 7/ 10 1017.3F CAPERS NEARSHORE 0900 58 260/ 6/ 6 N/A FRIPP NEARSHORE NOT AVBL STATION/POSITION TIME TEMP WIND PRES WAVE SWELL AIR SEA DIR/SP/G HT/PER HT/PER/DIR (UTC) (F) (DEG/KT/KT) (MB) (FT/S) (FT/S/D) 5E ST. MARYS GA 1000 62 N/A 2/14 2/ 90/14 FRYING PAN BUOY 1000 65 68 270/ 6/ 8 1017.0F 3/14 2/130/14 BUOY 41025 1000 62 1017.0F 3/13 CAPE LOOKOUT NC 0900 59 40/ 5/ 5 1016.5F BUOY 41002 0933 71 74 240/ 12/ 16 1019.3S 4/13 3/ 90/13 BUOY 41010 1000 76 77 190/ 12/ 16 1019.5F 4/14 3/ 80/14 ST AUGUSTINE FL 1000 63 210/ 5/ 7 1018.4F $$

USA.gov is the U.S. government's official web portal to all federal, state and local government web resources and services.